NOAA 16 DEB, 41503

Orbit data source: Space-Track

NOAA 16 DEB, 41503 is space debris in SSO originally from a launch on Thu, 21 Sep 2000 UTC launched from the Air Force Western Test Range (AFWTR). Debris objects in space refer to the collection of defunct objects orbiting the Earth. Examples of debris include non-operational satellites, rocket bodies, and fragments generated from explosions, collisions, or faulty payload assembly.

Loading next visibility...
Identifier
41503, 2000-055MB
Orbit
SSO
Country
Flag of USUS
Related business
Manufacturer
Unknown
Mission
Spacecraft
Bus & Motor
Unknown
Mass
Unknown
Launch date (UTC)
2000-09-21 (25 years ago)
Launch vehicle
Unknown
Launch site
Air Force Western Test Range (AFWTR)
Object type
Payload
Rocket body
Debris
Shape & HBR
Unknown shape, 0.1 m
Radar Cross Section
Small (<0.1 m²)

Expand to show TLE details & history
Last TLE update: 2 days ago

TLE from 2 days ago
0 NOAA 16 DEB
1 41503U 00055MB  25347.62039482  .00016130  00000-0  35581-2 0  9993
2 41503  98.7705 119.0242 0023628 269.6976  90.1513 14.57253463508895
Epoch: 2025-12-13T14:53Z
TLE epoch observation values (Epoch: 2025-12-13T14:53:22.112Z)
Latitude
-0.00005°
Longitude
173.13702°
Altitude
705.103 km
Speed
7.503 km/s
True Right ascension
07h 56m 05s
True Declination
0° 00' 00"
Sunlit
Object was in full shadow at epoch
Visualization orbit readout
Latitude
Unknown
Longitude
Unknown
Altitude
Unknown
Speed
Unknown
Apparent Right ascension
Unknown
Apparent Declination
Unknown
Sunlit
N/A
Visualization observer readout
Local Sidereal Time
02:38:59
Azimuth
Unknown
Elevation
Unknown
Doppler factor
Unknown
Orbital elements
Apogee altitude
715.89 km
Perigee altitude
682.446 km
Semi-major axis
7,077.305 km
Eccentricity
0.00236
Inclination
98.7705°
RAAN
119.0242°
Arg. of periapsis
269.6976°
True anomaly
90.42205°
Mean anomaly
90.1513°
Eccentric anomaly
90.28668°
Mean motion
3.64537 °/min
Orbital period
98.76 mins
BSTAR
0.0035581
Loading maneuver chart data...
Computing Atmospheric mass density...
Loading historical data...
Loading historical data...
Loading historical data...
Loading historical data...
Loading historical data...
Loading historical data...
Loading historical data...

Documentation

Showing up to 5 results
|